This is the latest recevied weather packets stored in our database for station/object DB0RES-5. If no packets are shown the sender has not sent any weather packets the latest 10 day(s).
| Time | Temp. | Humidity | Pressure | Rain* | Wind** | Luminosity | Snow |
|---|---|---|---|---|---|---|---|
| 1778145918 | 13.89° C | 65% | 1016.9 hPa | 0 mm | - | - | - |
| 1778145316 | 13.89° C | 65% | 1016.8 hPa | 0 mm | - | - | - |
| 1778144773 | 13.33° C | 67% | 1016.7 hPa | 0 mm | - | - | - |
| 1778144171 | 12.78° C | 70% | 1016.7 hPa | 0 mm | - | - | - |
| 1778143568 | 12.78° C | 70% | 1016.7 hPa | 0 mm | - | - | - |
| 1778142965 | 12.22° C | 71% | 1016.8 hPa | 0 mm | - | - | - |
| 1778142363 | 11.67° C | 72% | 1016.9 hPa | 0 mm | - | - | - |
| 1778141760 | 12.22° C | 72% | 1016.8 hPa | 0 mm | - | - | - |
| 1778141158 | 11.67° C | 73% | 1016.8 hPa | 0 mm | - | - | - |
| 1778140555 | 11.11° C | 75% | 1016.7 hPa | 0 mm | - | - | - |
| 1778139953 | 11.11° C | 75% | 1016.6 hPa | 0 mm | - | - | - |
| 1778139350 | 10.56° C | 76% | 1016.5 hPa | 0 mm | - | - | - |
| 1778138747 | 10.56° C | 77% | 1016.4 hPa | 0 mm | - | - | - |
| 1778138145 | 10° C | 77% | 1016.4 hPa | 0 mm | - | - | - |
| 1778137542 | 10° C | 78% | 1016.4 hPa | 0 mm | - | - | - |
| 1778136940 | 9.44° C | 79% | 1016.2 hPa | 0 mm | - | - | - |
| 1778136337 | 9.44° C | 79% | 1016.3 hPa | 0 mm | - | - | - |
| 1778135735 | 9.44° C | 80% | 1016.2 hPa | 0 mm | - | - | - |
| 1778135132 | 8.89° C | 80% | 1016.1 hPa | 0 mm | - | - | - |
| 1778134530 | 8.33° C | 81% | 1016 hPa | 0 mm | - | - | - |
| 1778133927 | 8.33° C | 82% | 1015.9 hPa | 0 mm | - | - | - |
| 1778133324 | 7.78° C | 84% | 1016 hPa | 0 mm | - | - | - |
| 1778132721 | 7.78° C | 84% | 1015.8 hPa | 0 mm | - | - | - |
| 1778132119 | 7.78° C | 84% | 1015.7 hPa | 0 mm | - | - | - |
| 1778131516 | 7.22° C | 86% | 1015.6 hPa | 0 mm | - | - | - |
* Rain latest hour (hover to see other rain measurements)
** Current wind speed in m/s (hover to see current wind gust speed)